Torna al catalogo

METEOR 2-9

AttivoMeteoPO
NORAD 13718·PAYLOAD·🇷🇺 Russia

Lanciato Dec 14, 1982 da Plesetsk Cosmodrome

Loading…

Prossimi Passaggi (prossime 24 ore)

TLE

AggiornatoSource: Space-Track

Epoca: Sep 14, 2026, 10:30 UTC

1 13718U 82116A   26257.43813589 -.00000019  00000-0 -16205-4 0  9991
2 13718  81.2463 259.5935 0054191  66.0999 294.5839 14.15956058259003

Traccia METEOR 2-9 in tempo reale con AllMySat

Download on the App Store